This is the latest recevied weather packets stored in our database for station/object K6HFP. If no packets are shown the sender has not sent any weather packets the latest 1 day(s).
| Time | Temp. | Humidity | Pressure | Rain* | Wind** | Luminosity | Snow |
|---|---|---|---|---|---|---|---|
| 1778035039 | 15° C | 81% | 1014.2 hPa | 0 mm | - | 10 W/m² | - |
| 1778034737 | 15° C | 80% | 1014.3 hPa | 0 mm | - | 12 W/m² | - |
| 1778034433 | 15° C | 80% | 1014.2 hPa | 0 mm | - | 15 W/m² | - |
| 1778034131 | 15° C | 80% | 1014.4 hPa | 0 mm | - | 18 W/m² | - |
| 1778033829 | 15° C | 80% | 1014.2 hPa | 0 mm | - | 22 W/m² | - |
| 1778033526 | 15° C | 79% | 1014.1 hPa | 0 mm | - | 23 W/m² | - |
| 1778033223 | 15° C | 79% | 1014 hPa | 0 mm | - | 27 W/m² | - |
| 1778032618 | 15° C | 80% | 1013.8 hPa | 0 mm | - | 29 W/m² | - |
| 1778032315 | 15° C | 79% | 1014 hPa | 0 mm | - | 32 W/m² | - |
| 1778032012 | 15° C | 79% | 1013.9 hPa | 0 mm | - | 39 W/m² | - |
| 1778031708 | 15° C | 79% | 1013.9 hPa | 0 mm | - | 40 W/m² | - |
| 1778031406 | 15° C | 80% | 1014 hPa | 0 mm | - | 50 W/m² | - |
| 1778031103 | 15° C | 79% | 1013.9 hPa | 0 mm | - | 61 W/m² | - |
| 1778030799 | 15° C | 79% | 1013.9 hPa | 0 mm | - | 57 W/m² | - |
| 1778030496 | 15° C | 79% | 1013.7 hPa | 0 mm | - | 59 W/m² | - |
| 1778029889 | 15° C | 78% | 1014 hPa | 0 mm | - | 63 W/m² | - |
| 1778029588 | 15° C | 79% | 1013.8 hPa | 0 mm | - | 77 W/m² | - |
| 1778029285 | 15° C | 78% | 1013.7 hPa | 0 mm | - | 83 W/m² | - |
| 1778028982 | 15° C | 77% | 1013.8 hPa | 0 mm | - | 75 W/m² | - |
| 1778028678 | 15.56° C | 76% | 1013.6 hPa | 0 mm | - | 87 W/m² | - |
| 1778028375 | 15.56° C | 76% | 1013.3 hPa | 0 mm | - | 105 W/m² | - |
| 1778028072 | 15.56° C | 76% | 1013.5 hPa | 0 mm | - | 113 W/m² | - |
| 1778027161 | 15.56° C | 76% | 1013.5 hPa | 0 mm | - | 123 W/m² | - |
| 1778026857 | 15.56° C | 76% | 1013.5 hPa | 0 mm | - | 127 W/m² | - |
| 1778026553 | 15.56° C | 74% | 1013.4 hPa | 0 mm | - | 157 W/m² | - |
* Rain latest hour (hover to see other rain measurements)
** Current wind speed in m/s (hover to see current wind gust speed)